(284540) = 2007 RA217

Discovered at Mount Lemmon on 2007-09-13 by Mt. Lemmon Survey.

Orbit

Orbit type: Main Belt

Note: WebGL enabled browser required.

epoch2022-01-21.0
epoch JD2459600.5
perihelion date2020-07-25.27189
perihelion JD2459055.77189
argument of perihelion (°)322.63392
ascending node (°)17.88541
inclination (°)3.47449
eccentricity0.2059198
perihelion distance (AU)2.1083326
Tisserand w.r.t. Jupiter3.4
ΔV w.r.t. Earth (km/sec)9.2
semimajor axis (AU)2.6550626
mean anomaly (°)124.09992
mean daily motion (°/day)0.22781990
aphelion distance (AU)3.202
period (years)4.33
P-vector [x]0.94241145
P-vector [y]-0.29036534
P-vector [z]-0.16597783
Q-vector [x]0.33393749
Q-vector [y]0.84452480
Q-vector [z]0.41864498
absolute magnitude17.33
phase slope0.15
uncertainty0
referenceMPO 696858
observations used238
oppositions13
arc length (days)10015
first opposition used1994
last opposition used2022
residual rms (arc-secs)0.90
perturbers coarse indicatorM-v
perturbers precise indicator003Ek
first observation date used1994-09-08.0
last observation date used2022-02-08.0
computer namePan
JD of orbit computation2455941.249998
perihelion JD uncertainty (days)1.1723E-04
argument of perihelion uncertainty (°)1.2601E-04
ascending node uncertainty (°)1.2133E-04
inclination uncertainty (°)9.2572E-06
eccentricity uncertainty 8.4839E-08
perihelion distance uncertainty (AU)2.3186E-07
Minimum Orbit Intersection Distances (in AU)
for orbit epoch: 2458200.5, reference: MPO433840
Mercury1.70922
Venus1.3763
Earth1.09561
Mars0.721599
Jupiter2.19044
Saturn6.06862
Uranus15.002
Neptune26.943

Observations

235 total observations over interval: 1994 09 08.33590 – 2022 02 08.297067
These data are available for download (format description).

Date (UT) J2000 RA J2000 Dec Magn Location Ref
1994 09 08.33590 23 44 33.60 -05 04 10.6   691 – Steward Observatory, Kitt Peak-Spacewatch MPS 222583
1994 09 08.35926 23 44 32.37 -05 04 15.2 19.4 V 691 – Steward Observatory, Kitt Peak-Spacewatch MPS 222583
1994 09 08.38254 23 44 31.18 -05 04 19.5   691 – Steward Observatory, Kitt Peak-Spacewatch MPS 222583
2003 10 20.42848 03 43 44.32 +22 26 58.5 21.2 V 691 – Steward Observatory, Kitt Peak-Spacewatch MPS 222583
2003 10 20.45764 03 43 43.05 +22 26 58.2 21.3 V 691 – Steward Observatory, Kitt Peak-Spacewatch MPS 222583
2003 10 20.48566 03 43 41.84 +22 26 58.1 21.0 V 691 – Steward Observatory, Kitt Peak-Spacewatch MPS 222583
2003 11 16.27951 03 18 44.74 +21 49 35.6 20.4 V 691 – Steward Observatory, Kitt Peak-Spacewatch MPS 222583
2003 11 16.31088 03 18 42.74 +21 49 30.9 20.2 V 691 – Steward Observatory, Kitt Peak-Spacewatch MPS 222583
2003 11 16.33885 03 18 40.94 +21 49 26.1 20.4 V 691 – Steward Observatory, Kitt Peak-Spacewatch MPS 222583
2003 11 21.24552 03 13 43.16 +21 36 18.6 19.5 R 695 – Kitt Peak MPS 229861
2003 11 21.32101 03 13 38.51 +21 36 06.0   695 – Kitt Peak MPS 229861
2006 05 03.27853 13 56 21.91 -13 36 10.9 21.9 V G96 – Mt. Lemmon Survey MPS 222583
2006 05 03.28413 13 56 21.58 -13 36 10.1 21.1 V G96 – Mt. Lemmon Survey MPS 222583
2006 05 03.28980 13 56 21.30 -13 36 08.6 21.0 V G96 – Mt. Lemmon Survey MPS 222583
2006 05 03.29527 13 56 20.94 -13 36 07.5 21.4 V G96 – Mt. Lemmon Survey MPS 222583
2007 09 13.23305 00 00 57.04 -02 44 22.2   704 – Lincoln Laboratory ETS, New Mexico MPS 407550
2007 09 13.24463 00 00 56.41 -02 44 25.3   704 – Lincoln Laboratory ETS, New Mexico MPS 407550
2007 09 13.25622 00 00 55.80 -02 44 29.5   704 – Lincoln Laboratory ETS, New Mexico MPS 407550
2007 09 13.26781 00 00 55.24 -02 44 30.8   704 – Lincoln Laboratory ETS, New Mexico MPS 407550
2007 09 13.33167 00 00 51.94 -02 44 42.7 18.7 V G96 – Mt. Lemmon Survey MPS 216559
2007 09 13.33846 00 00 51.66 -02 44 43.6 18.7 V G96 – Mt. Lemmon Survey MPS 216559
2007 09 13.34532 00 00 51.26 -02 44 45.0 18.8 V G96 – Mt. Lemmon Survey MPS 216559
2007 09 13.35204 00 00 50.90 -02 44 46.2 18.9 V G96 – Mt. Lemmon Survey MPS 216559
2007 09 14.33328 00 00 02.28 -02 47 50.5 18.7 R 699 – Lowell Observatory-LONEOS MPS 216559
2007 09 14.35613 00 00 01.09 -02 47 54.3   699 – Lowell Observatory-LONEOS MPS 216559
2007 09 14.37896 23 59 59.83 -02 47 59.0   699 – Lowell Observatory-LONEOS MPS 216559
2007 09 16.24922 23 58 26.02 -02 53 52.9 19.4   704 – Lincoln Laboratory ETS, New Mexico MPS 217797
2007 09 16.26100 23 58 25.36 -02 53 54.1 19.7   704 – Lincoln Laboratory ETS, New Mexico MPS 217797
2007 09 16.27279 23 58 24.79 -02 53 57.0 19.5   704 – Lincoln Laboratory ETS, New Mexico MPS 217797
2007 09 16.28460 23 58 24.11 -02 53 59.2 19.6   704 – Lincoln Laboratory ETS, New Mexico MPS 217797
2007 09 19.17970 23 55 56.45 -03 03 03.4 19.3   704 – Lincoln Laboratory ETS, New Mexico MPS 217797
2007 09 19.20395 23 55 55.14 -03 03 08.1 19.5   704 – Lincoln Laboratory ETS, New Mexico MPS 217797
2007 09 19.21609 23 55 54.45 -03 03 09.5 19.4   704 – Lincoln Laboratory ETS, New Mexico MPS 217797
2007 09 19.22821 23 55 53.79 -03 03 12.8 19.7   704 – Lincoln Laboratory ETS, New Mexico MPS 217797
2007 10 06.21240 23 42 11.24 -03 46 33.2 20.4   704 – Lincoln Laboratory ETS, New Mexico MPS 218827
2007 10 06.22334 23 42 10.79 -03 46 35.2 20.5   704 – Lincoln Laboratory ETS, New Mexico MPS 218827
2007 10 06.23418 23 42 10.31 -03 46 35.9 20.0   704 – Lincoln Laboratory ETS, New Mexico MPS 218827
2007 10 06.24501 23 42 09.84 -03 46 37.1 20.2   704 – Lincoln Laboratory ETS, New Mexico MPS 218827
2007 10 12.29932 23 38 20.32 -03 54 22.9 19.2 V G96 – Mt. Lemmon Survey MPS 220676
2007 10 12.29986 23 38 20.32 -03 54 22.6 19.7 V G96 – Mt. Lemmon Survey MPS 220676
2007 10 12.30543 23 38 20.11 -03 54 23.2 19.1 V G96 – Mt. Lemmon Survey MPS 220676
2007 10 12.30598 23 38 20.07 -03 54 23.1 19.6 V G96 – Mt. Lemmon Survey MPS 220676
2007 10 12.31148 23 38 19.93 -03 54 23.4 19.1 V G96 – Mt. Lemmon Survey MPS 220677
2007 10 12.31202 23 38 19.86 -03 54 23.5 19.7 V G96 – Mt. Lemmon Survey MPS 220677
2007 10 12.31755 23 38 19.68 -03 54 23.8 19.2 V G96 – Mt. Lemmon Survey MPS 220677
2007 10 12.31809 23 38 19.64 -03 54 23.4 19.8 V G96 – Mt. Lemmon Survey MPS 220677
2007 11 05.15575 23 33 02.84 -03 27 09.0 20.5 V G96 – Mt. Lemmon Survey MPS 224969
2007 11 05.16128 23 33 02.91 -03 27 08.0 20.4 V G96 – Mt. Lemmon Survey MPS 224969
2007 11 05.16682 23 33 02.95 -03 27 07.1 20.9 V G96 – Mt. Lemmon Survey MPS 224969
2007 11 05.17240 23 33 02.95 -03 27 05.7 20.7 V G96 – Mt. Lemmon Survey MPS 224969
2007 11 17.06093 23 36 38.37 -02 38 59.0 20.8 V G96 – Mt. Lemmon Survey MPS 228315
2007 11 17.06587 23 36 38.55 -02 38 56.9 21.1 V G96 – Mt. Lemmon Survey MPS 228315
2007 11 17.07091 23 36 38.66 -02 38 55.3 20.8 V G96 – Mt. Lemmon Survey MPS 228315
2007 11 17.07595 23 36 38.80 -02 38 54.3 21.2 V G96 – Mt. Lemmon Survey MPS 228315
2007 12 05.18167 23 48 57.99 -00 48 32.4 21.3 V G96 – Mt. Lemmon Survey MPS 229861
2007 12 05.18755 23 48 58.35 -00 48 29.2 21.8 V G96 – Mt. Lemmon Survey MPS 229861
2007 12 05.19348 23 48 58.68 -00 48 26.8 22.0 V G96 – Mt. Lemmon Survey MPS 229861
2007 12 05.19944 23 48 58.93 -00 48 24.3 22.2 V G96 – Mt. Lemmon Survey MPS 229861
2008 12 29.27831 08 33 20.26 +23 54 14.9 21.4 V G96 – Mt. Lemmon Survey MPS 270195
2008 12 29.28560 08 33 19.90 +23 54 16.4 22.4 V G96 – Mt. Lemmon Survey MPS 270195
2008 12 29.29293 08 33 19.54 +23 54 17.8 21.8 V G96 – Mt. Lemmon Survey MPS 270195
2008 12 29.30027 08 33 19.18 +23 54 19.2 21.6 V G96 – Mt. Lemmon Survey MPS 270195
2009 01 26.17006 08 06 42.48 +25 23 02.1 22.0 V G96 – Mt. Lemmon Survey MPS 272687
2009 01 26.17553 08 06 42.08 +25 23 03.3 21.2 V G96 – Mt. Lemmon Survey MPS 272687
2009 01 26.18107 08 06 41.83 +25 23 03.4 22.0 V G96 – Mt. Lemmon Survey MPS 272687
2009 01 26.18660 08 06 41.47 +25 23 04.2 21.9 V G96 – Mt. Lemmon Survey MPS 272687
2010 04 17.28324 12 17 51.25 -01 19 28.6 21.9 V G96 – Mt. Lemmon Survey MPS 323484
2010 04 17.28914 12 17 50.96 -01 19 27.1 21.8 V G96 – Mt. Lemmon Survey MPS 323484
2010 04 17.29506 12 17 50.71 -01 19 25.3 21.5 V G96 – Mt. Lemmon Survey MPS 323484
2010 04 17.30102 12 17 50.46 -01 19 24.1 21.1 V G96 – Mt. Lemmon Survey MPS 323484
2011 07 07.65343 19 54 29.23 -27 14 30.1 19.5 V E12 – Siding Spring Survey MPS 387233
2011 07 07.66160 19 54 28.83 -27 14 31.1 20.2 V E12 – Siding Spring Survey MPS 387233
2011 07 07.66976 19 54 28.44 -27 14 33.0 19.9 V E12 – Siding Spring Survey MPS 387233
2011 07 07.67796 19 54 27.90 -27 14 33.6 20.9 V E12 – Siding Spring Survey MPS 387233
2011 07 07.68616 19 54 27.50 -27 14 35.7 19.7 V E12 – Siding Spring Survey MPS 387233
2011 07 28.34966 19 34 55.752 -27 58 51.14 19.9 i F51 – Pan-STARRS 1, Haleakala MPS 387234
2011 07 28.35979 19 34 55.168 -27 58 51.84 19.8 i F51 – Pan-STARRS 1, Haleakala MPS 387234
2011 07 28.37034 19 34 54.548 -27 58 52.42 19.8 r F51 – Pan-STARRS 1, Haleakala MPS 387234
2011 07 28.37952 19 34 54.021 -27 58 53.06 19.7 r F51 – Pan-STARRS 1, Haleakala MPS 387234
2015 05 15.48082 16 31 31.897 -25 57 39.43 20.6 w F51 – Pan-STARRS 1, Haleakala MPS 608387
2015 05 15.50271 16 31 30.671 -25 57 39.02 20.6 w F51 – Pan-STARRS 1, Haleakala MPS 608387
2015 05 15.51363 16 31 30.063 -25 57 38.93 20.7 w F51 – Pan-STARRS 1, Haleakala MPS 608387
2015 05 18.48041 16 28 47.155 -25 56 45.38 20.6 w F51 – Pan-STARRS 1, Haleakala MPS 608387
2015 05 18.49155 16 28 46.492 -25 56 44.93 20.7 w F51 – Pan-STARRS 1, Haleakala MPS 608387
2015 05 18.50271 16 28 45.851 -25 56 44.51 20.5 w F51 – Pan-STARRS 1, Haleakala MPS 608387
2015 05 18.51389 16 28 45.178 -25 56 44.34 20.5 w F51 – Pan-STARRS 1, Haleakala MPS 608387
2015 06 22.37993 15 55 30.900 -25 00 54.70 20.6 i F51 – Pan-STARRS 1, Haleakala MPS 613968
2015 06 22.39024 15 55 30.416 -25 00 53.26 20.7 i F51 – Pan-STARRS 1, Haleakala MPS 613968
2015 06 22.41096 15 55 29.461 -25 00 50.49 20.8 i F51 – Pan-STARRS 1, Haleakala MPS 613968
2016 09 02.41642 03 48 21.93 +21 10 08.3 22.4 V G96 – Mt. Lemmon Survey MPS 727245
2016 09 02.42377 03 48 22.28 +21 10 10.2 22.2 V G96 – Mt. Lemmon Survey MPS 727245
